Location: Bethera
(33.2010°N, 79.7880°W)
Time: 00:35:16
(UTC-05:00)

Amateur Radio Satellites - All Passes

Search period start: 23 January 2018 00:05
Search period end: 24 January 2018 00:05
Location: Bethera, 33.2010°N, 79.7880°W

Satellite Date Start Highest point End Downlink Frequencies (MHz)
Time Altitude Azimuth
POLYITAN 1 23 Jan 00:07:37 00:11:53 60° 101° (ESE) 00:16:05 437.675
NANOSAT C BR1 23 Jan 00:21:04 00:25:21 78° 103° (ESE) 00:29:35 145.865
BUGSAT 1 23 Jan 00:22:49 00:24:30 12° 93° (E) 00:26:12 437.445
SPROUT 23 Jan 00:22:58 00:27:07 55° 260° (W) 00:31:18 437.525
QB50P2 23 Jan 00:37:38 00:41:46 49° 286° (WNW) 00:45:53 145.880/145.840
VELOX 1 23 Jan 00:43:06 00:47:26 64° 259° (W) 00:51:47 145.980
DX 1 23 Jan 00:52:54 00:56:30 26° 71° (ENE) 01:00:07 434.975-435.025
O/OREOS (USA 219) 23 Jan 01:02:27 01:05:56 21° 297° (WNW) 01:09:23 437.305
DUCHIFAT 1 23 Jan 01:03:45 01:07:39 36° 287° (WNW) 01:11:32 145.980
YUBILEINY 23 Jan 01:03:53 01:09:23 18° 292° (WNW) 01:14:53 435.215
EO-79 23 Jan 01:08:16 01:11:44 24° 289° (WNW) 01:15:10 145.935-145.965
NO-84 23 Jan 01:27:26 01:28:05 10° 236° (WSW) 01:28:43 435.350 FM
Oscar 19 23 Jan 01:32:54 01:37:55 50° 100° (E) 01:42:52 437.125/150
Gurwin Techsat 1B 23 Jan 01:36:57 01:41:57 40° 99° (E) 01:46:54 435.225
ISS 23 Jan 01:51:13 01:52:17 11° 29° (NNE) 01:53:20 437.550
BEESAT 23 Jan 01:51:52 01:53:19 11° 64° (ENE) 01:54:46 436.000
50 SAT 23 Jan 01:53:19 01:56:16 44° 260° (W) 01:59:14 437.505
AO-91 23 Jan 01:54:07 01:58:49 75° 284° (WNW) 02:03:57 145.960
BUGSAT 1 23 Jan 01:55:58 02:00:00 43° 286° (WNW) 02:04:00 437.445
FALCONSAT 3 23 Jan 01:59:24 02:02:24 24° 152° (SSE) 02:05:24 435.103
UKube-1 23 Jan 02:11:19 02:15:33 58° 259° (WSW) 02:19:48 .
DX 1 23 Jan 02:29:20 02:32:36 21° 264° (W) 02:35:52 434.975-435.025
ITUPSAT 1 23 Jan 02:47:53 02:52:26 47° 73° (ENE) 02:57:01 437.325
MOZHAYETS 4 23 Jan 02:56:30 03:01:06 74° 258° (WSW) 03:05:45
nSIGHT-1 23 Jan 03:03:04 03:06:14 83° 45° (NE) 03:09:24 .
CUBESAT XI-V 23 Jan 03:06:22 03:10:28 31° 72° (ENE) 03:14:35 437.345
Oscar 19 23 Jan 03:13:39 03:16:45 16° 294° (WNW) 03:19:51 437.125/150
Gurwin Techsat 1B 23 Jan 03:17:40 03:21:33 21° 293° (WNW) 03:25:25 435.225
AO-7 23 Jan 03:19:06 03:27:07 48° 102° (ESE) 03:35:00 .
BEESAT 23 Jan 03:25:46 03:30:28 64° 259° (WSW) 03:35:13 436.000
ISS 23 Jan 03:25:52 03:29:09 86° 217° (SW) 03:32:25 437.550
FALCONSAT 3 23 Jan 03:37:32 03:41:13 86° 164° (SSE) 03:44:54 435.103
SO-50 23 Jan 03:52:17 03:55:40 22° 110° (ESE) 03:59:06 436.795
KKS-1 23 Jan 04:09:36 04:12:49 20° 69° (ENE) 04:16:02 437.445
ITAMSAT 1 23 Jan 04:23:12 04:28:24 75° 285° (WNW) 04:33:36 435.822/435.867
ITUPSAT 1 23 Jan 04:27:55 04:30:26 14° 266° (W) 04:32:57 437.325
CUBESAT XI-V 23 Jan 04:44:18 04:47:48 21° 265° (W) 04:51:18 437.345
DOVE 4 23 Jan 05:05:43 05:10:11 86° 101° (E) 05:14:57 437.250
AO-7 23 Jan 05:12:17 05:19:31 34° 298° (WNW) 05:26:44 .
M-CUBED/EXP-1 PRIME 23 Jan 05:14:58 05:18:13 64° 106° (ESE) 05:21:25 437.505
FALCONSAT 3 23 Jan 05:16:46 05:20:24 58° 360° (N) 05:24:03 435.103
SO-50 23 Jan 05:32:00 05:35:54 30° 305° (NW) 05:39:54 436.795
XW-2C 23 Jan 05:36:03 05:38:47 19° 95° (E) 05:41:30 145.795 - 145.815
LilacSat-2 23 Jan 05:36:52 05:39:49 22° 96° (E) 05:42:46 437.200
KKS-1 23 Jan 05:45:18 05:49:07 29° 262° (W) 05:52:59 437.445
STARS 23 Jan 05:53:26 05:57:44 65° 259° (W) 06:02:05 437.465
KAITUO 1B 23 Jan 06:03:17 06:06:33 29° 97° (E) 06:09:47 145.475/437.950
XW-2F 23 Jan 06:09:09 06:12:47 50° 99° (E) 06:16:23 145.980 - 146.000
NUDT-PHONESAT 23 Jan 06:09:33 06:12:53 33° 98° (E) 06:16:11 437.300
CUTE-I 23 Jan 06:13:58 06:19:05 46° 100° (E) 06:24:11 437.470
XW-2D 23 Jan 06:20:59 06:24:44 89° 101° (E) 06:28:28 145.860 - 145.880
HO-68 23 Jan 06:28:17 06:34:33 32° 98° (E) 06:40:49 435.675
RS-15 23 Jan 06:33:21 06:44:02 37° 105° (ESE) 06:54:39 29.354- 29.394
XW-2B 23 Jan 06:38:47 06:42:26 53° 284° (WNW) 06:46:04 145.730 - 145.750
SEEDS 23 Jan 06:46:26 06:49:40 22° 96° (E) 06:52:52 437.485
FALCONSAT 3 23 Jan 06:55:56 06:59:36 85° 196° (SSW) 07:03:16 435.103
STRAND 1 23 Jan 07:02:53 07:07:58 82° 76° (ENE) 07:13:05 437.568
CUTE 1.7 + AOD 2 23 Jan 07:03:16 07:07:27 66° 101° (E) 07:11:36 437.475
XW-2C 23 Jan 07:10:01 07:12:49 20° 289° (WNW) 07:15:36 145.795 - 145.815
LilacSat-2 23 Jan 07:11:16 07:13:54 18° 289° (WNW) 07:16:31 437.200
XW-2A 23 Jan 07:24:37 07:26:45 16° 95° (E) 07:28:52 145.665 - 145.685
FO-29 23 Jan 07:32:55 07:39:49 70° 76° (ENE) 07:45:56 435.910
KAITUO 1B 23 Jan 07:38:26 07:40:11 13° 291° (WNW) 07:41:56 145.475/437.950
UWE-3 23 Jan 07:41:38 07:46:14 61° 100° (E) 07:50:43 435.000/436.395/437.385
CUBEBUG 2 23 Jan 07:41:38 07:46:22 71° 284° (WNW) 07:51:02 437.445
NUDT-PHONESAT 23 Jan 07:45:05 07:46:20 11° 291° (WNW) 07:47:34 437.300
JUGNU 23 Jan 07:47:01 07:48:17 11° 163° (SSE) 07:49:32 437.505
AAUSAT CUBESAT 2 23 Jan 07:54:48 07:58:52 61° 100° (E) 08:02:55 437.432
CUTE-I 23 Jan 07:55:07 07:58:43 19° 294° (WNW) 08:02:18 437.470
ZACube-1 23 Jan 07:59:35 08:03:57 47° 99° (E) 08:08:12 437.345
AO-73 23 Jan 08:04:43 08:09:04 46° 99° (E) 08:13:17 145.935
HO-68 23 Jan 08:15:41 08:22:15 40° 292° (WNW) 08:28:47 435.675
BEESAT 3 23 Jan 08:20:06 08:23:41 33° 113° (ESE) 08:27:17 437.485
SEEDS 23 Jan 08:21:56 08:25:12 23° 289° (WNW) 08:28:28 437.485
PCSat 23 Jan 08:27:44 08:32:24 31° 108° (ESE) 08:37:06 145.827
Oscar 11 23 Jan 08:34:57 08:39:14 64° 100° (E) 08:43:29 .
FALCONSAT 3 23 Jan 08:35:27 08:38:25 23° 208° (SSW) 08:41:21 435.103
RS-15 23 Jan 08:43:47 08:55:53 60° 303° (WNW) 09:07:56 29.354- 29.394
XW-2A 23 Jan 08:56:56 08:59:18 18° 288° (WNW) 09:01:39 145.665 - 145.685
TIGRISAT 23 Jan 09:13:51 09:18:12 63° 76° (ENE) 09:22:41 435.000
BEESAT 2 23 Jan 09:14:32 09:18:07 33° 113° (ESE) 09:21:46 435.950
YUBILEINY 23 Jan 09:19:09 09:26:43 32° 75° (ENE) 09:34:12 435.215
UWE-3 23 Jan 09:20:46 09:22:03 11° 295° (WNW) 09:23:19 435.000/436.395/437.385
FO-29 23 Jan 09:21:16 09:25:03 15° 265° (W) 09:28:38 435.910
UNISAT 6 23 Jan 09:29:50 09:34:14 75° 258° (WSW) 09:38:47 437.425
JUGNU 23 Jan 09:32:35 09:36:35 19° 172° (S) 09:40:35 437.505
O/OREOS (USA 219) 23 Jan 09:36:38 09:40:27 27° 65° (ENE) 09:44:16 437.305
ZACube-1 23 Jan 09:37:36 09:39:43 13° 293° (WNW) 09:41:50 437.345
DELFI C3 23 Jan 09:41:25 09:45:18 66° 100° (E) 09:49:13 145.870
AO-73 23 Jan 09:42:40 09:44:47 13° 293° (WNW) 09:46:53 145.935
Max Valier Satellite 23 Jan 09:47:25 09:51:00 47° 100° (E) 09:54:31 145.860
BEESAT 3 23 Jan 09:58:38 10:01:15 17° 308° (NW) 10:03:54 437.485
EO-88 23 Jan 09:59:47 10:03:13 41° 99° (E) 10:06:39 145.990 - 145.960
PCSat 23 Jan 10:11:00 10:15:42 30° 303° (WNW) 10:20:26 145.827
PRISM 23 Jan 10:27:49 10:31:53 77° 259° (W) 10:35:56 437.425
AO-85 23 Jan 10:37:19 10:40:44 30° 111° (ESE) 10:44:18 145.980
BEESAT 2 23 Jan 10:53:11 10:55:53 17° 308° (NW) 10:58:37 435.950
POLYITAN 1 23 Jan 10:56:10 10:59:39 25° 71° (ENE) 11:03:09 437.675
RS-15 23 Jan 11:03:58 11:11:38 18° 330° (NNW) 11:19:15 29.354- 29.394
NANOSAT C BR1 23 Jan 11:08:52 11:12:34 31° 72° (ENE) 11:16:19 145.865
LO-87 23 Jan 11:10:20 11:13:43 36° 98° (E) 11:17:03 145.935 - 145.965
ESTCUBE 1 23 Jan 11:13:48 11:17:48 32° 97° (E) 11:21:47 437.505/2401.250
AIST 2D 23 Jan 11:14:53 11:18:12 38° 261° (W) 11:21:30 435.315
YUBILEINY 23 Jan 11:15:27 11:23:36 47° 271° (W) 11:31:43 435.215
O/OREOS (USA 219) 23 Jan 11:16:16 11:19:39 21° 259° (WSW) 11:23:02 437.305
JUGNU 23 Jan 11:20:37 11:24:56 21° 182° (S) 11:29:16 437.505
QB50P2 23 Jan 11:25:19 11:29:31 67° 75° (ENE) 11:33:44 145.880/145.840
SRMSAT 23 Jan 11:46:44 11:50:16 16° 168° (SSE) 11:53:47 437.500
DUCHIFAT 1 23 Jan 11:50:22 11:54:33 89° 76° (ENE) 11:58:47 145.980
EO-79 23 Jan 11:55:16 11:59:23 57° 259° (W) 12:03:35 145.935-145.965
SPROUT 23 Jan 12:12:41 12:16:34 32° 98° (E) 12:20:24 437.525
AO-85 23 Jan 12:18:21 12:21:09 18° 309° (NW) 12:24:04 145.980
POLYITAN 1 23 Jan 12:32:08 12:35:19 21° 264° (W) 12:38:33 437.675
VELOX 1 23 Jan 12:37:18 12:41:14 32° 98° (E) 12:45:09 145.980
BUGSAT 1 23 Jan 12:40:45 12:44:47 70° 75° (ENE) 12:48:54 437.445
Oscar 19 23 Jan 12:45:24 12:50:22 48° 73° (ENE) 12:55:21 437.125/150
NANOSAT C BR1 23 Jan 12:45:35 12:48:17 17° 266° (W) 12:51:00 145.865
LO-87 23 Jan 12:45:59 12:46:41 10° 292° (WNW) 12:47:24 145.935 - 145.965
AO-91 23 Jan 12:48:22 12:51:34 43° 75° (ENE) 12:54:52 145.960
ESTCUBE 1 23 Jan 12:51:13 12:54:19 19° 291° (WNW) 12:57:26 437.505/2401.250
Gurwin Techsat 1B 23 Jan 12:53:49 12:58:48 43° 72° (ENE) 13:03:47 435.225
JUGNU 23 Jan 13:09:53 13:13:17 16° 192° (SSW) 13:16:41 437.505
RS-15 23 Jan 13:28:40 13:31:48 11° 9° (N) 13:34:54 29.354- 29.394
SRMSAT 23 Jan 13:34:19 13:38:47 22° 178° (S) 13:43:15 437.500
SPROUT 23 Jan 13:49:19 13:52:08 17° 291° (WNW) 13:54:57 437.525
ITAMSAT 1 23 Jan 14:01:49 14:03:15 11° 63° (ENE) 14:04:40 435.822/435.867
UKube-1 23 Jan 14:02:33 14:06:21 30° 98° (E) 14:10:07 .
SO-50 23 Jan 14:06:11 14:10:55 73° 61° (ENE) 14:15:41 436.795
AO-7 23 Jan 14:13:21 14:21:09 46° 65° (ENE) 14:28:58 .
VELOX 1 23 Jan 14:14:23 14:17:23 18° 291° (WNW) 14:20:24 145.980
DX 1 23 Jan 14:20:11 14:24:32 90° 274° (W) 14:28:53 434.975-435.025
Oscar 19 23 Jan 14:26:40 14:29:51 16° 266° (W) 14:33:03 437.125/150
Gurwin Techsat 1B 23 Jan 14:35:11 14:38:51 19° 265° (W) 14:42:32 435.225
50 SAT 23 Jan 14:43:02 14:45:50 31° 286° (WNW) 14:48:38 437.505
ITUPSAT 1 23 Jan 14:53:38 14:56:43 17° 95° (E) 14:59:47 437.325
MOZHAYETS 4 23 Jan 14:55:55 15:00:09 35° 98° (E) 15:04:19
NO-84 23 Jan 14:59:34 15:02:23 25° 126° (SE) 15:05:01 435.350 FM
SRMSAT 23 Jan 15:23:09 15:27:20 20° 188° (S) 15:31:31 437.500
BEESAT 23 Jan 15:30:01 15:34:36 44° 100° (E) 15:39:10 436.000
ITAMSAT 1 23 Jan 15:36:51 15:42:00 75° 257° (WSW) 15:47:11 435.822/435.867
UKube-1 23 Jan 15:39:07 15:42:06 19° 291° (WNW) 15:45:05 .
RS-15 23 Jan 15:40:08 15:50:06 31° 43° (NE) 15:59:34 29.354- 29.394
M-CUBED/EXP-1 PRIME 23 Jan 15:55:38 15:59:44 42° 70° (ENE) 16:03:36 437.505
AO-7 23 Jan 16:06:31 16:13:54 35° 261° (W) 16:21:21 .
DOVE 4 23 Jan 16:07:18 16:11:27 49° 75° (ENE) 16:15:29 437.250
ITUPSAT 1 23 Jan 16:30:08 16:34:37 40° 288° (WNW) 16:39:06 437.325
MOZHAYETS 4 23 Jan 16:33:50 16:36:58 18° 292° (WNW) 16:40:06
NO-84 23 Jan 16:37:09 16:39:29 18° 318° (NW) 16:41:43 435.350 FM
CUBESAT XI-V 23 Jan 16:43:36 16:48:09 59° 284° (WNW) 16:52:38 437.345
XW-2F 23 Jan 16:47:02 16:48:59 14° 69° (ENE) 16:50:56 145.980 - 146.000
HO-68 23 Jan 16:54:55 16:58:52 16° 59° (ENE) 17:02:49 435.675
XW-2D 23 Jan 16:58:16 17:01:15 22° 72° (ENE) 17:04:13 145.860 - 145.880
BEESAT 23 Jan 17:09:05 17:11:57 16° 294° (WNW) 17:14:48 436.000
SRMSAT 23 Jan 17:14:06 17:15:48 11° 197° (SSW) 17:17:32 437.500
XW-2B 23 Jan 17:15:25 17:18:54 34° 74° (ENE) 17:22:23 145.730 - 145.750
PCSat 23 Jan 17:21:35 17:23:26 12° 48° (NE) 17:25:17 145.827
CUTE-I 23 Jan 17:31:32 17:36:39 50° 73° (ENE) 17:41:46 437.470
M-CUBED/EXP-1 PRIME 23 Jan 17:32:00 17:34:06 13° 260° (W) 17:36:10 437.505
KKS-1 23 Jan 17:39:28 17:43:55 71° 101° (ESE) 17:48:22 437.445
XW-2C 23 Jan 17:45:34 17:49:24 84° 258° (WSW) 17:53:14 145.795 - 145.815
STARS 23 Jan 17:47:01 17:50:54 30° 98° (E) 17:54:47 437.465
LilacSat-2 23 Jan 17:47:20 17:51:10 72° 259° (WSW) 17:55:01 437.200
CUTE 1.7 + AOD 2 23 Jan 17:51:50 17:55:24 26° 72° (ENE) 17:58:58 437.475
RS-15 23 Jan 17:52:06 18:03:35 74° 247° (WSW) 18:14:30 29.354- 29.394
nSIGHT-1 23 Jan 18:01:40 18:03:45 17° 128° (SE) 18:05:51 .
KAITUO 1B 23 Jan 18:11:49 18:15:29 53° 260° (W) 18:19:10 145.475/437.950
NUDT-PHONESAT 23 Jan 18:17:05 18:20:42 48° 260° (W) 18:24:19 437.300
BEESAT 3 23 Jan 18:17:18 18:21:11 74° 61° (ENE) 18:24:59 437.485
XW-2F 23 Jan 18:19:21 18:22:45 31° 262° (W) 18:26:09 145.980 - 146.000
ISS 23 Jan 18:27:03 18:29:35 21° 129° (SE) 18:32:06 437.550
XW-2D 23 Jan 18:32:32 18:35:17 19° 265° (W) 18:38:03 145.860 - 145.880
UWE-3 23 Jan 18:34:21 18:38:08 28° 71° (ENE) 18:42:02 435.000/436.395/437.385
CUBEBUG 2 23 Jan 18:35:01 18:39:15 55° 75° (ENE) 18:43:41 437.445
HO-68 23 Jan 18:38:30 18:45:40 84° 255° (WSW) 18:52:52 435.675
AAUSAT CUBESAT 2 23 Jan 18:41:02 18:44:14 22° 71° (ENE) 18:47:28 437.432
ZACube-1 23 Jan 18:51:21 18:54:48 22° 70° (ENE) 18:58:18 437.345
XW-2B 23 Jan 18:51:42 18:53:08 12° 267° (W) 18:54:34 145.730 - 145.750
AO-73 23 Jan 18:56:10 18:59:36 22° 70° (ENE) 19:03:04 145.935
PCSat 23 Jan 19:02:06 19:07:33 89° 90° (E) 19:12:57 145.827
SEEDS 23 Jan 19:08:01 19:12:11 60° 260° (W) 19:16:20 437.485
AO-85 23 Jan 19:12:33 19:15:04 14° 49° (NE) 19:17:39 145.980
BEESAT 2 23 Jan 19:12:51 19:16:51 75° 62° (ENE) 19:20:45 435.950
CUTE-I 23 Jan 19:13:43 19:16:53 16° 266° (W) 19:20:05 437.470
STRAND 1 23 Jan 19:17:48 19:22:37 39° 99° (E) 19:27:24 437.568
XW-2A 23 Jan 19:22:18 19:25:40 61° 76° (ENE) 19:29:02 145.665 - 145.685
STARS 23 Jan 19:23:49 19:26:59 20° 291° (WNW) 19:30:10 437.465
Oscar 11 23 Jan 19:25:37 19:29:20 28° 72° (ENE) 19:33:04 .
CUTE 1.7 + AOD 2 23 Jan 19:28:00 19:31:08 20° 265° (W) 19:34:18 437.475
nSIGHT-1 23 Jan 19:36:52 19:39:43 30° 322° (NW) 19:42:33 .
ISS 23 Jan 20:03:06 20:05:55 27° 323° (NW) 20:08:46 437.550
RS-15 23 Jan 20:10:18 20:13:46 12° 264° (W) 20:17:13 29.354- 29.394
UWE-3 23 Jan 20:11:13 20:14:32 21° 266° (W) 20:17:56 435.000/436.395/437.385
CUBEBUG 2 23 Jan 20:15:52 20:16:12 10° 269° (W) 20:16:32 437.445
AAUSAT CUBESAT 2 23 Jan 20:16:19 20:19:33 22° 264° (W) 20:22:46 437.432
DELFI C3 23 Jan 20:22:59 20:25:50 20° 71° (ENE) 20:28:41 145.870
Max Valier Satellite 23 Jan 20:23:48 20:25:12 12° 69° (ENE) 20:26:36 145.860
ZACube-1 23 Jan 20:27:07 20:30:52 27° 264° (W) 20:34:43 437.345
FO-29 23 Jan 20:31:34 20:36:47 87° 103° (ESE) 20:42:14 435.910
AO-73 23 Jan 20:31:50 20:35:36 27° 264° (W) 20:39:28 145.935
HO-68 23 Jan 20:32:52 20:34:10 10° 269° (W) 20:35:28 435.675
AO-85 23 Jan 20:50:53 20:55:58 78° 243° (WSW) 21:01:18 145.980
STRAND 1 23 Jan 20:57:45 21:01:28 20° 293° (WNW) 21:05:09 437.568
Oscar 11 23 Jan 21:02:15 21:05:25 20° 265° (W) 21:08:35 .
TIGRISAT 23 Jan 21:10:17 21:13:41 20° 94° (E) 21:17:02 435.000
UNISAT 6 23 Jan 21:25:48 21:30:01 32° 97° (E) 21:34:11 437.425
Max Valier Satellite 23 Jan 21:55:13 21:58:38 34° 262° (W) 22:02:04 145.860
DELFI C3 23 Jan 21:57:19 22:00:23 22° 264° (W) 22:03:29 145.870
EO-88 23 Jan 22:06:04 22:09:29 39° 261° (W) 22:12:56 145.990 - 145.960
ESTCUBE 1 23 Jan 22:09:49 22:12:56 19° 69° (ENE) 22:16:03 437.505/2401.250
PRISM 23 Jan 22:13:49 22:16:45 19° 96° (E) 22:19:41 437.425
YUBILEINY 23 Jan 22:14:19 22:22:25 43° 88° (E) 22:30:30 435.215
AIST 2D 23 Jan 22:44:10 22:46:36 18° 95° (E) 22:49:00 435.315
TIGRISAT 23 Jan 22:46:09 22:50:21 33° 288° (WNW) 22:54:30 435.000
SPROUT 23 Jan 23:02:56 23:05:19 15° 68° (ENE) 23:07:42 437.525
UNISAT 6 23 Jan 23:03:00 23:06:26 20° 291° (WNW) 23:09:51 437.425
NO-84 23 Jan 23:12:03 23:14:23 22° 43° (NE) 23:16:47 435.350 FM
LO-87 23 Jan 23:14:38 23:18:03 47° 261° (W) 23:21:32 145.935 - 145.965
QB50P2 23 Jan 23:15:34 23:18:05 15° 94° (E) 23:20:35 145.880/145.840
VELOX 1 23 Jan 23:31:12 23:34:04 17° 68° (ENE) 23:36:56 145.980
DUCHIFAT 1 23 Jan 23:39:14 23:42:16 19° 95° (E) 23:45:18 145.980
O/OREOS (USA 219) 23 Jan 23:43:59 23:48:28 72° 107° (ESE) 23:52:57 437.305
EO-79 23 Jan 23:44:09 23:47:55 30° 97° (E) 23:51:40 145.935-145.965
ESTCUBE 1 23 Jan 23:45:22 23:49:26 33° 262° (W) 23:53:31 437.505/2401.250
PRISM 23 Jan 23:48:34 23:51:56 25° 289° (WNW) 23:55:19 437.425
